sat.trackr.live / text

‹ back to catalog

STARLINK-30284

NORAD 57877 · 2023-144P

PAYLOAD ACTIVE UNKNOWN

§ Identity

Operator
Country
US
Launch date
2023-09-16
Launch site
AFETR
Launch vehicle
Mass (kg)
RCS (m²)

Purposes: comms

External: N2YO · Heavens-Above · Gunter

§ Orbital elements

Epoch: 2026-05-25T02:14:35.420064Z

Period
94.27 min
Inclination
43.0001°
Eccentricity
0.0001634
Mean motion
15.27600528 rev/d
Perigee alt
481.9 km
Apogee alt
484.1 km
Semi-major
6,861.1 km
B*
1.4070e-4
RAAN
177.0720°
Arg perigee
284.4562°
Mean anomaly
75.6108°
Rev number
14,974

§ Raw data

STARLINK-302841 57877U 23144P   26145.09346551  .00003614  00000+0  14070-3 0  99972 57877  43.0001 177.0720 0001634 284.4562  75.6108 15.27600528149741

JSON: /api/v1/satellites/57877 · /tle

For live sub-satellite position, see the globe view (requires WebGL).

§ Visibility from observer

Set your observer location to see the next 7 days of passes ≥ 10°. The values pass through the URL so the page stays shareable.

No JS? Fill the form by hand. The geolocation button needs JavaScript.